FW5243 Weather Reports


Display with metric or nautical units.
time (UTC)temp
F
wind
direction
speed
MPH
gust
MPH
rain 1hr
in
rain 24hr
in
rain mn
in
humidity
%
barometer
mb
20260904053017 68 138 0.0 0.0 0.00 0.14 0.00 100 1014.0
20260904051519 69 138 0.0 0.0 0.00 0.14 0.00 100 1014.2
20260904050008 69 152 0.0 0.0 0.00 0.14 0.00 100 1014.3
20260904044507 70 152 0.0 0.0 0.00 0.22 0.00 100 1014.2
20260904043006 70 230 0.0 0.0 0.01 0.22 0.00 100 1014.0
20260904041504 70 229 0.0 1.0 0.01 0.22 0.00 100 1014.0
20260904040100 71 273 1.0 3.0 0.01 0.22 0.00 100 1014.3
20260904034600 71 10 0.0 0.0 0.01 0.22 0.22 100 1014.3
20260904033059 71 10 0.0 0.0 0.00 0.21 0.21 100 1014.5
20260904031600 72 10 0.0 0.0 0.00 0.21 0.21 100 1014.7
20260904030058 72 10 0.0 0.0 0.00 0.21 0.21 100 1014.8
20260904024558 71 10 0.0 0.0 0.00 0.80 0.21 100 1014.6
20260904023057 71 10 0.0 0.0 0.00 0.80 0.21 100 1014.3
20260904021556 70 10 0.0 0.0 0.00 0.80 0.21 100 1014.5
20260904020059 71 11 0.0 0.0 0.00 0.80 0.21 100 1014.8
20260904014607 72 11 0.0 0.0 0.00 0.80 0.21 100 1014.9
20260904013055 72 227 0.0 3.0 0.00 0.80 0.21 100 1015.3
20260904011555 72 355 0.0 3.0 0.00 0.80 0.21 100 1015.3
20260904010112 73 206 0.0 3.0 0.00 0.80 0.21 100 1015.5
20260904004555 73 42 0.0 0.0 0.00 0.80 0.21 100 1015.3
20260904003053 74 42 0.0 2.0 0.00 0.80 0.21 100 1015.3
20260904001552 74 190 0.0 0.0 0.00 0.80 0.21 100 1015.0
20260904000057 75 190 0.0 2.0 0.00 0.80 0.21 100 1014.8
20260903234552 75 225 0.0 2.0 0.00 0.80 0.21 100 1014.9
20260903233055 76 254 1.0 4.0 0.00 0.80 0.21 100 1014.7
20260903231551 75 50 0.0 0.0 0.00 0.80 0.21 100 1014.5
20260903230051 76 50 0.0 0.0 0.00 0.80 0.21 100 1014.4
20260903224550 76 51 0.0 0.0 0.00 0.80 0.21 100 1014.4
20260903223051 77 51 0.0 0.0 0.00 0.80 0.21 100 1014.3
20260903221550 78 52 0.0 0.0 0.00 0.80 0.21 100 1014.1
20260903220052 79 52 0.0 1.0 0.00 0.80 0.21 100 1014.1
20260903214548 80 72 0.0 3.0 0.00 0.80 0.21 100 1014.2
20260903213045 80 82 0.0 2.0 0.00 0.80 0.21 100 1014.3
20260903211545 81 90 0.0 2.0 0.00 0.80 0.21 100 1014.2
20260903210059 82 134 0.0 3.0 0.00 0.80 0.21 100 1014.1
20260903204603 83 101 0.0 3.0 0.00 0.80 0.21 100 1014.1
20260903203040 83 24 0.0 3.0 0.00 0.80 0.21 100 1014.4
20260903201538 82 170 0.0 6.0 0.00 0.80 0.21 100 1014.5
20260903200041 82 173 0.0 3.0 0.00 0.80 0.21 100 1014.6
20260903194538 82 258 2.0 7.0 0.00 0.80 0.21 100 1014.6
20260903193037 83 5 2.0 6.0 0.00 0.80 0.21 100 1014.7
20260903191534 83 194 0.0 5.0 0.00 0.80 0.21 100 1015.0
20260903190033 83 231 2.0 7.0 0.00 0.80 0.21 100 1015.0
20260903184527 82 152 1.0 6.0 0.00 0.80 0.21 100 1015.3
20260903183024 81 192 1.0 5.0 0.00 0.80 0.21 100 1015.5
20260903181523 81 113 1.0 4.0 0.00 0.80 0.21 100 1015.7
20260903180032 81 80 2.0 5.0 0.00 0.80 0.21 100 1015.7
20260903174522 81 93 2.0 7.0 0.00 0.80 0.21 100 1015.9
20260903173018 80 107 0.0 4.0 0.00 0.80 0.21 100 1015.8
20260903171518 79 103 0.0 6.0 0.00 0.80 0.21 100 1016.0
20260903170020 80 91 2.0 5.0 0.00 0.80 0.21 100 1016.0
20260903164513 79 157 1.0 6.0 0.00 0.80 0.21 100 1016.1
20260903163011 79 76 1.0 6.0 0.00 0.80 0.21 100 1016.3
20260903161511 78 27 0.0 4.0 0.00 0.80 0.21 100 1016.5
20260903160027 78 192 1.0 6.0 0.00 0.80 0.21 100 1016.8
20260903154506 77 136 1.0 8.0 0.00 0.81 0.21 100 1016.9
20260903153005 77 62 0.0 7.0 0.00 0.81 0.21 100 1017.0
20260903151501 75 205 1.0 7.0 0.00 0.81 0.21 100 1017.2
20260903150110 75 271 1.0 10.0 0.00 0.81 0.21 100 1017.3
20260903144602 73 136 1.0 3.0 0.00 0.81 0.21 100 1017.1
20260903143050 71 96 0.0 3.0 0.00 0.81 0.21 100 1017.3
20260903141548 69 101 0.0 2.0 0.00 0.81 0.21 100 1017.4
20260903140048 69 130 0.0 2.0 0.00 0.81 0.21 100 1017.5
20260903134551 69 126 0.0 1.0 0.00 0.81 0.21 100 1017.5
20260903133049 69 93 0.0 0.0 0.00 0.81 0.21 100 1017.4
20260903131544 68 65 0.0 0.0 0.00 0.81 0.21 100 1017.2
20260903130043 68 30 0.0 0.0 0.00 0.81 0.21 100 1017.2
20260903124550 68 30 0.0 0.0 0.00 0.81 0.21 100 1017.1
20260903123038 67 29 0.0 0.0 0.00 0.81 0.21 100 1017.2
20260903121537 67 29 0.0 0.0 0.00 0.81 0.21 100 1017.4
20260903120046 66 29 0.0 0.0 0.00 0.81 0.21 100 1016.9
20260903114536 66 29 0.0 0.0 0.00 0.81 0.21 100 1016.7
20260903113037 66 29 0.0 0.0 0.00 0.81 0.21 100 1016.4
20260903111534 65 30 0.0 0.0 0.00 0.81 0.21 100 1016.2
20260903110033 65 30 0.0 0.0 0.00 0.81 0.21 100 1016.3
20260903104532 65 30 0.0 0.0 0.00 0.81 0.21 100 1016.1
20260903103030 66 30 0.0 2.0 0.00 0.81 0.21 100 1016.6
20260903101533 66 198 0.0 0.0 0.00 0.81 0.21 100 1017.0
20260903100028 66 198 0.0 1.0 0.00 0.81 0.21 100 1017.1
20260903094535 66 196 0.0 4.0 0.00 0.81 0.21 100 1017.3
20260903093039 65 221 0.0 2.0 0.00 0.81 0.21 100 1016.9
20260903091525 65 144 0.0 2.0 0.00 0.81 0.21 100 1017.1
20260903090031 65 188 0.0 0.0 0.00 0.81 0.21 100 1017.1
20260903084524 65 188 0.0 0.0 0.00 0.81 0.21 100 1017.0
20260903083022 65 188 0.0 0.0 0.00 0.81 0.21 100 1016.4
20260903081522 65 101 0.0 1.0 0.00 0.81 0.21 100 1016.7
20260903080028 65 30 0.0 1.0 0.00 0.81 0.21 100 1017.0
20260903074522 65 238 0.0 0.0 0.00 0.81 0.21 100 1016.8
20260903073028 65 237 0.0 0.0 0.02 0.81 0.21 100 1016.5
20260903071530 64 169 0.0 0.0 0.05 0.81 0.21 100 1016.3
20260903070018 64 144 0.0 1.0 0.09 0.81 0.21 100 1016.3
20260903064518 64 160 0.0 1.0 0.12 0.81 0.21 100 1016.5
20260903063013 64 149 0.0 1.0 0.11 0.79 0.19 100 1017.2
20260903061516 64 184 0.0 3.0 0.07 0.75 0.15 100 1017.3
20260903060013 64 166 0.0 0.0 0.04 0.72 0.12 100 1018.4
20260903054511 64 165 0.0 0.0 0.02 0.69 0.09 100 1018.6